Погода в Порту-Алегри

Бразилия     30°04′07″S   51°12′39″W
темп.,
°C
ветер,
м/с
пор.,
м/с
влажн.,
%
обл.,
%
осадки,
мм/ч
давл.,
гПа
погр.,
м
27 февраля, сб
сб2700:00+23в611690 0.0 1018838
03:00+22в59730 0.0 1017705
06:00+22в49790 0.0 1018580
09:00+25в586613 0.0 10201015
12:00+28вюв575370 0.2 10201402
15:00+29вюв685068 0.3 10181552
18:00+27вюв7105331 0.0 10181301
21:00+24в6126416 0.0 10191211
28 февраля, вс
вс2800:00+23в511650 0.0 10201128
03:00+22в410710 0.0 1018990
06:00+22в49740 0.0 1018897
09:00+25в58600 0.0 10191236
12:00+29вюв574547 0.0 10181712
15:00+28вюв795543 0.1 10161438
18:00+26вюв7116544 0.1 10141200
21:00+24вюв7137161 0.2 10151117
1 марта, пн
пн100:00+24в6117433 0.0 10141000
03:00+23вюв5107918 0.0 1012696
06:00+23в37808 0.0 1013518
09:00+26в35654 0.0 1013845
12:00+30юв445425 0.2 10131179
15:00+30юв565327 0.5 10111280
18:00+27вюв586246 0.1 10111113
21:00+25вюв487728 0.1 1012666
2 марта, вт
вт200:00+24вюв488311 0.0 1012553
03:00+23в368728 0.0 1011439
06:00+23в248956 0.0 1012304
09:00+26вюв347043 0.0 1013733
12:00+31юв335363 0.0 10131201
15:00+29ююв566070 0.2 10111030
18:00+28юв686430 0.0 10111044
21:00+25вюв597622 0.1 1014696
3 марта, ср
ср300:00+24вюв48812 0.0 1015606
03:00+23вюв378510 0.0 1014477
06:00+23вюв368732 0.0 1014427
09:00+26вюв357134 0.0 1016681
12:00+29ююв445863 0.0 1015957
15:00+30ююв565467 0.0 10141033
18:00+28юв575630 0.0 10131014
21:00+24вюв597015 0.0 1015594